User: anonymous   Login
Location: Caltech
(34.1382°N, 118.1253°W)
Time: 13:53:59
(UTC-07:00)
Language:

Cosmos 1758 Rocket - Orbit

View from above orbital plane
View from above orbital plane
View from above satellite
View from above satellite

Ground track
Ground track

The orbit data is extracted from the following two-line orbital elements,

1 16792U 86046B   17201.99052668 +.00000066 +00000-0 +51652-5 0  9991
2 16792 082.4831 170.6025 0024245 178.1753 257.4300 14.83137970679896
Epoch (UTC): 20 July 2017 23:46:21
Eccentricity: 0.0024245
inclination: 82.4831°
perigee height: 602 km
apogee height: 636 km
right ascension of ascending node: 170.6025°
argument of perigee: 178.1753°
revolutions per day: 14.83137970
mean anomaly at epoch: 257.4300°
orbit number at epoch: 67989

The dashed part of the orbit path shows where the satellite is in the earth's shadow,  

DLR